Torna al catalogo

SL-23 DEB

AttivoMEO
NORAD 43381·DEBRIS·🇷🇺 Russia

Lanciato Apr 27, 2008 da Baikonur Cosmodrome

Loading…

Prossimi Passaggi (prossime 24 ore)

TLE

AggiornatoSource: Space-Track

Epoca: Sep 10, 2026, 11:39 UTC

1 43381U 08020C   26253.48588273 -.00000084  00000-0  00000+0 0  9994
2 43381  60.0879  26.8961 0658027 207.1290 152.2577  1.67820328 78452

Traccia SL-23 DEB in tempo reale con AllMySat

Download on the App Store